Regional Weather Roundup
Issued by NWS

Home | Current Version | Previous Version | Graphics & Text | Print | Product List | Glossary On
Versions: 1 2 3 4 5 6 7 8 9 10 11 12 13 14 15 16 17 18 19 20 21 22 23 24 25 26 27 28 29 30 31 32 33 34 35 36 37 38 39 40 41 42 43 44 45 46 47 48 49 50
000
ASUS43 KMKX 050400
RWRWI

WISCONSIN REGIONAL WEATHER ROUNDUP
NATIONAL WEATHER SERVICE MILWAUKEE/SULLIVAN WI
1100 PM CDT FRI SEP 04 2015

NOTE: "FAIR" INDICATES FEW OR NO CLOUDS BELOW 12,000 FEET WITH NO
SIGNIFICANT WEATHER AND/OR OBSTRUCTIONS TO VISIBILITY.

WIZ001-002-006>008-014>016-023>028-050500-
NORTHWEST WISCONSIN

CITY           SKY/WX    TMP DP  RH WIND       PRES   REMARKS
SUPERIOR ARPT  MOCLDY    60  58  92 E3        29.97F
ASHLAND        CLEAR     62  62 100 CALM      30.00R
HAYWARD        CLEAR     73  66  78 SE6       30.01R
SIREN          PTCLDY    75  70  84 SE7       29.96F
CUMBERLAND     CLEAR     72  68  88 SE5       30.00S
RICE LAKE      PTCLDY    73  67  82 SE10      30.01S
CHETEK         PTCLDY    73  69  87 SE6       30.00S
LADYSMITH      CLEAR     71  66  84 SE3       30.04S
EAU CLAIRE     NOT AVBL
MENOMONIE      MOCLDY    75  72  90 E6        29.98S
NEW RICHMOND   PTCLDY    76  70  83 SE6       29.97R
OSCEOLA        PTCLDY    77  72  83 SE7       29.97S
$$

WIZ003>005-009-010-017-018-050500-
NORTH CENTRAL WISCONSIN

CITY           SKY/WX    TMP DP  RH WIND       PRES   REMARKS
MANITOWISH WTR CLEAR     68  67  94 S6        30.06S
ARBOR VITAE    CLEAR     72  68  88 S7        30.06F
WOODRUFF       CLEAR     72  68  88 S7        30.06F
RHINELANDER    CLEAR     67  64  90 SE8       30.08F
EAGLE RIVER    CLEAR     66  65  96 CALM      30.08S
LAND O LAKES   CLEAR     67  65  91 S3        30.09S
PHILLIPS       CLEAR     70  67  89 SE3       30.04S
TOMAHAWK       CLEAR     67  64  91 SE5       30.07S
MEDFORD        PTCLDY    68  66  94 SE3       30.05F
MERRILL        CLEAR     69  67  94 SE6       30.07F
$$

WIZ029-030-035-036-043>047-050500-
CENTRAL WISCONSIN

CITY           SKY/WX    TMP DP  RH WIND       PRES   REMARKS
WAUSAU         PTCLDY    69  66  90 E7        30.05S
MOSINEE        CLEAR     66  66 100 E6        30.07S
MARSHFIELD     CLEAR     70  64  81 SE7       30.05S
STEVENS POINT  CLEAR     65  64  97 E5        30.06S FOG
WAUPACA        MOCLDY    68  68  99 CALM      30.06S FOG
WAUTOMA        NOT AVBL
WISC RAPIDS    PTCLDY    69  64  84 SE6       30.06S
CAMP DOUGLAS   NOT AVBL
$$

WIZ011>013-019>022-031-037>040-048>050-050500-
NORTHEAST WISCONSIN

CITY           SKY/WX    TMP DP  RH WIND       PRES   REMARKS
ANTIGO         CLEAR     63  63 100 S3        30.10R FOG
SHAWANO        NOT AVBL
OCONTO         PTCLDY    62  62 100 CALM      30.06S
STURGEON BAY   CLOUDY    68  64  88 CALM      30.09S
GREEN BAY      PTCLDY    64  63  96 CALM      30.06F FOG
MANITOWOC      NOT AVBL
APPLETON       MOCLDY    66  66 100 VRB5      30.05S
CLINTONVILLE   CLEAR     64  64 100 CALM      30.06S FOG
OSHKOSH        MOCLDY    66  64  93 SE3       30.06R
$$

WIZ032>034-041-042-053>061-050500-
SOUTHWEST WISCONSIN

CITY           SKY/WX    TMP DP  RH WIND       PRES   REMARKS
LA CROSSE      PTCLDY    77  73  87 SE8       29.99R
SPARTA         CLEAR     73  67  80 E3        30.02S
VIROQUA        PTCLDY    74  74 100 SE8       30.03S
BOSCOBEL       FOG       72  72 100 CALM      30.01R VSB 3/4
PRAIRIE DU CHI CLEAR     74  70  88 CALM      30.00R
PLATTEVILLE    CLEAR     76  73  91 SE6       30.02S
$$

WIZ056-057-062-063-064-067-068-050500-
SOUTH CENTRAL WISCONSIN

CITY           SKY/WX    TMP DP  RH WIND       PRES   REMARKS
REEDSBURG      PTCLDY    71  69  92 E3        30.03F
BARABOO/DELLS  CLEAR     70  66  87 E6        30.04F
LONE ROCK      NOT AVBL
MINERAL POINT  CLEAR     75  72  88 E5        30.04S
MADISON        PTCLDY    71  67  87 SE6       30.04S
MIDDLETON      CLEAR     74  70  86 SE10      30.05S
WATERTOWN      PTCLDY    67  67 100 CALM      30.06S
MONROE         FAIR      72  70  94 E8        30.05R
JANESVILLE     CLEAR     70  68  94 E8        30.05S
$$

WIZ051-052-058>065-066-070>072-050500-
SOUTHEAST WISCONSIN

CITY           SKY/WX    TMP DP  RH WIND       PRES   REMARKS
MILWAUKEE      FOG       66  65  96 S5        30.06S VSB 1/2
WAUKESHA       CLEAR     64  63  94 SE3       30.08S
MILWAUKEE/TIMM MOCLDY    66  63  88 CALM      30.07S
RACINE         CLOUDY    68  65  90 S3        30.08S
BURLINGTON     MOCLDY    65  64  96 CALM      30.07S
KENOSHA        CLOUDY    69  66  90 S6        30.07S
FOND DU LAC    MOCLDY    66  65  96 SE3       30.07R
SHEBOYGAN      FOG       63  63 100 CALM      30.07S VSB 1/4
WEST BEND      FOG       63  63 100 CALM      30.07S VSB 1/4
JUNEAU         MOCLDY    67  65  94 E5        30.07S
$$

LSZ147-162-050500-
LAKE SUPERIOR

STATION/POSITION TIME  TEMP    WIND        PRES    WAVE
                       AIR SEA DIR/SP/G            HT/PER
                 (UTC) (F)     (DEG/KT/KT) (MB)    (FT/S)
W MID LAKE BUOY  0250   63 58  110/ 10/ 12 1015.7R   2/ 4
DEVILS ISLAND    0300   70     140/  7/  7 1014.8R
PORT WING        0300   54     270/  4/  5 1015.6
SAXON HARBOR     0340   70      CALM  /  7 1014.9R
$$

LMZ867-665-643>646-050500-
LAKE MICHIGAN

STATION/POSITION TIME  TEMP    WIND        PRES    WAVE
                       AIR SEA DIR/SP/G            HT/PER
                 (UTC) (F)     (DEG/KT/KT) (MB)    (FT/S)
CHAMBERS ISLAND  0300   67     300/  2/  4 1018.3R
S GREEN BAY BUOY 0300   67 67   40/  4/  4 1019.4R
N MID LAKE BUOY  0250   68 67  330/  2/  4 1017.8R   1
NORTHPORT PIER   0300   68        CALM     1017.9S
SISTER BAY       0311   68      CALM  /  3   N/A
ALGOMA LAKESHORE 0314             CALM       N/A
KEWAUNEE LAKESHO 0300   66     280/  2/  2 1017.1R
SHEBOYGAN LAKESH 0300   61     350/  3/  4 1018.3R
PORT WASHINGTON  0300   61      CALM  /  2 1018.6S
ATWATER BUOY     0300   61 60  300/  2/  4 1019.4F
MILWAUKEE LAKESH 0310   64     180/  2/  2   N/A
S MID LAKE BUOY  0250   68 71   90/  4/  4 1017.7
KENOSHA   LAKESH 0300   67      40/  1/  2 1017.6S
$$

TC  - TEMPERATURE IN CELSIUS
VSB - VISIBILITY IN STATUTE MILES
WCI - WIND CHILL INDEX
HX  - HEAT INDEX



USA.gov is the U.S. government's official web portal to all federal, state and local government web resources and services.